Tracking 18945 objects as of 21-Jan-2018
HD Live streaming from Space Station
objects crossing your sky now

DELTA 1 DEB

Track DELTA 1 DEB now!
10-day predictions


NORAD ID: 2888
Int'l Code: 1965-089D
Perigee: 1,162.0 km
Apogee: 2,328.3 km
Inclination: 59.2 °
Period: 121.3 minutes
Semi major axis: 8116 km
RCS: 0.0459 m2 (small)
Launch date: November 6, 1965
Source: United States (US)
Launch site: AIR FORCE EASTERN TEST RANGE (AFETR)

Note: This is SATELLITE DEBRIS
aabbcc
Your satellite tracking list
Your tracking list is empty




NASA's NSSDC Master Catalog

Two Line Element Set (TLE):
1 02888U 65089D   18018.86576514 -.00000045  00000-0  19598-3 0  9999
2 02888  59.2032 323.9485 0718543 352.9648  34.5819 11.87350828210183
Source of the keplerian elements: AFSPC